Weather History for KDAN - February, 2015

Change the Weather History Date:

Thursday, February 12, 2015

  Actual Average Record
Temperature  
Mean Temperature 39 °F 40 °F  
Max Temperature 51 °F 49 °F 71 °F (1999)
Min Temperature 26 °F 31 °F 10 °F (1955)
Degree Days  
Heating Degree Days 26 25  
Month to date heating degree days 292 307  
Since 1 July heating degree days 2546 2635  
Cooling Degree Days 0 0  
Month to date cooling degree days 0 0  
Year to date cooling degree days 0 0  
Moisture  
Dew Point 21 °F    
Average Humidity 61    
Maximum Humidity 92    
Minimum Humidity 29    
Precipitation  
Precipitation 0.00 in 0.10 in 0.88 in (1963)
Month to date precipitation 1.09 1.33  
Year to date precipitation 2.60 4.75  
Snow  
Snow 0.00 in - - ()
Month to date snowfall 0.0  
Since 1 July snowfall T  
Snow Depth 0.00 in    
Sea Level Pressure  
Sea Level Pressure 29.93 in    
Wind  
Wind Speed 10 mph (West)    
Max Wind Speed 28 mph    
Max Gust Speed 42 mph    
Visibility 10 miles    
Events      
T = Trace of Precipitation, MM = Missing Value Source: NWS Daily Summary

Daily Weather History Graph

Daily Weather History Graph

Search for Another Location

Airport or City:

Trip Planner

Search our weather history database for the weather conditions in past years. The results will help you decide how hot, cold, wet, or windy it might be!

Date:

Astronomy

Feb. 12, 2015 Rise Set
Actual Time 7:08 AM EST 5:54 PM EST
Civil Twilight 6:42 AM EST 6:21 PM EST
Nautical Twilight 6:11 AM EST 6:51 PM EST
Astronomical Twilight 5:41 AM EST 7:21 PM EST
Moon 1:08 AM EST (2/12) 11:51 AM EST (2/12)
Length of Visible Light 11h 38m
Length of Day
10h 45m
Last Quarter, 44% of the Moon is Illuminated
Feb 12
Last Quarter
Feb 18
New
Feb 25
First Quarter
Mar 5
Full
Mar 13
Last Quarter

Hourly Weather History & Observations

Time (EST) Temp. Windchill Dew Point Humidity Pressure Visibility Wind Dir Wind Speed Gust Speed Precip Events Conditions
12:53 AM 34.0 °F 31.0 °F 28.0 °F 79% 29.90 in 10.0 mi SSW 3.5 mph - N/A   Clear
1:53 AM 33.1 °F 28.7 °F 28.0 °F 82% 29.89 in 10.0 mi WSW 4.6 mph - N/A   Clear
2:53 AM 32.0 °F 27.5 °F 27.0 °F 82% 29.87 in 10.0 mi SW 4.6 mph - N/A   Clear
3:53 AM 30.0 °F 25.2 °F 27.0 °F 88% 29.86 in 10.0 mi WSW 4.6 mph - N/A   Clear
4:53 AM 30.9 °F 27.5 °F 26.1 °F 82% 29.85 in 10.0 mi SSW 3.5 mph - N/A   Clear
5:53 AM 28.9 °F 23.9 °F 26.1 °F 89% 29.86 in 10.0 mi SSW 4.6 mph - N/A   Clear
6:53 AM 30.0 °F 25.2 °F 26.1 °F 85% 29.86 in 10.0 mi SSW 4.6 mph - N/A   Clear
7:53 AM 30.0 °F - 27.0 °F 88% 29.87 in 10.0 mi Calm Calm - N/A   Clear
8:53 AM 37.0 °F 34.5 °F 30.0 °F 76% 29.86 in 10.0 mi SSW 3.5 mph - N/A   Clear
9:53 AM 44.1 °F 42.5 °F 33.1 °F 65% 29.85 in 10.0 mi SW 3.5 mph - N/A   Clear
10:53 AM 50.0 °F - 30.9 °F 48% 29.83 in 10.0 mi North - - N/A   Clear
11:53 AM 48.0 °F - 28.0 °F 46% 29.81 in 10.0 mi WNW 16.1 mph 19.6 mph N/A   Overcast
12:53 PM 46.9 °F - 26.1 °F 44% 29.80 in 10.0 mi NW 6.9 mph - N/A   Overcast
1:53 PM 44.1 °F 35.9 °F 24.1 °F 45% 29.82 in 10.0 mi NW 19.6 mph 27.6 mph N/A   Overcast
2:53 PM 44.1 °F 36.2 °F 16.0 °F 32% 29.85 in 10.0 mi NW 18.4 mph 27.6 mph N/A   Overcast
3:53 PM 43.0 °F 33.5 °F 12.0 °F 28% 29.90 in 10.0 mi WNW 24.2 mph 36.8 mph N/A   Mostly Cloudy
4:53 PM 39.0 °F 29.0 °F 12.9 °F 34% 29.96 in 10.0 mi NW 20.7 mph 29.9 mph N/A   Clear
5:53 PM 35.1 °F 24.5 °F 14.0 °F 42% 30.00 in 10.0 mi NNW 18.4 mph 28.8 mph N/A   Clear
6:53 PM 33.1 °F 26.9 °F 12.0 °F 42% 30.05 in 10.0 mi NW 6.9 mph - N/A   Clear
7:53 PM 30.9 °F 21.2 °F 12.9 °F 47% 30.08 in 10.0 mi NW 12.7 mph - N/A   Clear
8:53 PM 30.0 °F 21.1 °F 10.0 °F 43% 30.10 in 10.0 mi NNW 10.4 mph - N/A   Clear
9:53 PM 28.0 °F 17.0 °F 7.0 °F 41% 30.12 in 10.0 mi NNW 13.8 mph 24.2 mph N/A   Clear
10:53 PM 27.0 °F 18.0 °F 7.0 °F 43% 30.16 in 10.0 mi WNW 9.2 mph - N/A   Clear
11:53 PM 26.1 °F 16.8 °F 5.0 °F 41% 30.18 in 10.0 mi NNW 9.2 mph - N/A   Clear